This is the latest recevied weather packets stored in our database for station/object KC5EZZ-2. If no packets are shown the sender has not sent any weather packets the latest 1 day(s).
| Time | Temp. | Humidity | Pressure | Rain* | Wind** | Luminosity | Snow |
|---|---|---|---|---|---|---|---|
| 1778061078 | 15° C | - | - | 0 mm | 3.13 m/s, 352° | - | - |
| 1778060177 | 15° C | - | - | 0 mm | 2.68 m/s, 10° | - | - |
| 1778059874 | 15° C | - | - | 0 mm | 3.13 m/s, 329° | - | - |
| 1778059575 | 15° C | - | - | 0 mm | 3.58 m/s, 321° | - | - |
| 1778059275 | 15° C | - | - | 0 mm | 1.79 m/s, 326° | - | - |
| 1778058973 | 15° C | - | - | 0 mm | 2.68 m/s, 343° | - | - |
| 1778058674 | 15° C | - | - | 0 mm | 3.13 m/s, 323° | - | - |
| 1778058072 | 15.56° C | - | - | 0 mm | 3.13 m/s, 359° | - | - |
| 1778057970 | 15.56° C | - | - | 0 mm | 3.58 m/s, 354° | - | - |
| 1778057773 | 15.56° C | - | - | 0 mm | 3.58 m/s, 354° | - | - |
| 1778057171 | 16.11° C | - | - | 0 mm | 3.13 m/s, 7° | - | - |
| 1778056572 | 16.11° C | - | - | 0 mm | 4.47 m/s, 0° | - | - |
| 1778056270 | 16.67° C | - | - | 0 mm | 3.58 m/s, 14° | - | - |
| 1778055671 | 16.67° C | - | - | 0 mm | 2.68 m/s, 353° | - | - |
| 1778055069 | 17.22° C | - | - | 0 mm | 3.58 m/s, 356° | - | - |
| 1778054168 | 17.78° C | - | - | 0 mm | 1.79 m/s, 24° | - | - |
| 1778053566 | 17.78° C | - | - | 0 mm | 4.47 m/s, 11° | - | - |
| 1778053266 | 17.78° C | - | - | 0 mm | 4.02 m/s, 0° | - | - |
| 1778052967 | 17.78° C | - | - | 0 mm | 4.02 m/s, 14° | - | - |
| 1778052365 | 18.89° C | - | - | 0 mm | 4.02 m/s, 35° | - | - |
| 1778051763 | 18.89° C | - | - | 0 mm | 4.47 m/s, 25° | - | - |
| 1778051164 | 19.44° C | - | - | 0 mm | 3.13 m/s, 21° | - | - |
| 1778050862 | 19.44° C | - | - | 0 mm | 4.02 m/s, 20° | - | - |
| 1778050627 | 19.44° C | - | - | 0 mm | 3.58 m/s, 38° | - | - |
| 1778050263 | 19.44° C | - | - | 0 mm | 2.68 m/s, 24° | - | - |
* Rain latest hour (hover to see other rain measurements)
** Current wind speed in m/s (hover to see current wind gust speed)